MAS7716 WIII-WMKK

Flight info

Callsign MAS7716
Flight time N/A
Altitude 38000
Route DOLTA2A/07L DOLTA A585 PKU/N0481F390 N633 SALAX SALAX1JXSULDIXILS/32R
Aircraft A388/J-SADE2E3FGHIJ3J4J5M1RWXY/LB1D1

Departure

Time N/A
Airport Soekarno-Hatta International Airport (WIII)

Arrival

Time 2026-05-06 15:12
Airport Kuala Lumpur International Airport (WMKK)
Time Latitude Longitude Altitude Speed Heading
2026-05-06 15:04 2.48144 101.90125 5167 ft 206 kts 330°
2026-05-06 15:04 2.49239 101.89433 4978 ft 191 kts 328°
2026-05-06 15:04 2.50304 101.88723 4655 ft 177 kts 327°
2026-05-06 15:04 2.51325 101.88038 4518 ft 178 kts 327°
2026-05-06 15:05 2.52358 101.87344 4507 ft 179 kts 327°
2026-05-06 15:05 2.53390 101.86649 4502 ft 180 kts 327°
2026-05-06 15:05 2.54432 101.85947 4511 ft 180 kts 327°
2026-05-06 15:05 2.55472 101.85245 4405 ft 180 kts 327°
2026-05-06 15:06 2.56506 101.84551 4159 ft 180 kts 327°
2026-05-06 15:06 2.57543 101.83851 3933 ft 179 kts 327°
2026-05-06 15:06 2.58573 101.83157 3710 ft 179 kts 327°
2026-05-06 15:06 2.59604 101.82462 3471 ft 179 kts 327°
2026-05-06 15:07 2.60287 101.82003 3324 ft 178 kts 327°
2026-05-06 15:07 2.61656 101.81080 3030 ft 178 kts 327°
2026-05-06 15:07 2.62675 101.80394 2798 ft 176 kts 326°
2026-05-06 15:07 2.63694 101.79707 2576 ft 176 kts 327°
2026-05-06 15:08 2.64711 101.79026 2350 ft 176 kts 327°
2026-05-06 15:08 2.65727 101.78336 2123 ft 174 kts 326°
2026-05-06 15:08 2.66675 101.77700 1908 ft 158 kts 327°
2026-05-06 15:08 2.67552 101.77101 1710 ft 148 kts 327°
2026-05-06 15:09 2.68400 101.76539 1534 ft 145 kts 328°
2026-05-06 15:09 2.69237 101.75978 1336 ft 145 kts 326°
2026-05-06 15:09 2.70062 101.75416 1150 ft 144 kts 327°
2026-05-06 15:09 2.70786 101.74930 997 ft 145 kts 327°
2026-05-06 15:10 2.71519 101.74432 849 ft 143 kts 327°
2026-05-06 15:10 2.71788 101.74254 790 ft 142 kts 327°
2026-05-06 15:10 2.72569 101.73730 633 ft 141 kts 326°
2026-05-06 15:10 2.73375 101.73183 454 ft 140 kts 326°
2026-05-06 15:11 2.74124 101.72682 293 ft 139 kts 326°
2026-05-06 15:11 2.74923 101.72140 108 ft 139 kts 328°
2026-05-06 15:11 2.75657 101.71661 84 ft 104 kts 326°
2026-05-06 15:11 2.76158 101.71323 65 ft 73 kts 326°
2026-05-06 15:12 2.76515 101.71080 67 ft 51 kts 326°
2026-05-06 15:12 2.76693 101.70961 64 ft 43 kts 326°
2026-05-06 15:12 2.76904 101.70717 65 ft 17 kts 296°
2026-05-06 15:12 2.76907 101.70709 61 ft 0 kts 296°
2026-05-06 15:16 2.76916 101.70690 62 ft 6 kts 285°
2026-05-06 15:16 2.76908 101.70640 65 ft 10 kts 237°
2026-05-06 15:17 2.76876 101.70621 68 ft 5 kts 155°
2026-05-06 15:17 2.76825 101.70646 67 ft 11 kts 154°
2026-05-06 15:17 2.76747 101.70692 64 ft 15 kts 147°
2026-05-06 15:17 2.76647 101.70758 63 ft 19 kts 147°
2026-05-06 15:18 2.76524 101.70838 63 ft 22 kts 145°
2026-05-06 15:18 2.76394 101.70931 63 ft 24 kts 146°
2026-05-06 15:18 2.76255 101.71026 64 ft 25 kts 146°
2026-05-06 15:18 2.76235 101.71040 63 ft 0 kts 146°